EW3084 Weather Reports


Display with metric or nautical units.
time (UTC)temp
F
wind
direction
speed
MPH
gust
MPH
rain 1hr
in
rain 24hr
in
rain mn
in
humidity
%
barometer
mb
20260508012703 36 0 0.0 0.0 0.00 0.00 0.00 72
20260508011803 37 82 0.0 1.0 0.00 0.00 0.00 71
20260508010903 37 82 0.0 1.0 0.00 0.00 0.00 71
20260508010003 37 82 0.0 2.0 0.00 0.00 0.00 71
20260508005403 37 82 0.0 2.0 0.00 0.00 0.00 71
20260508004503 37 82 0.0 3.0 0.00 0.00 0.00 70
20260508003603 38 82 0.0 1.0 0.00 0.00 0.00 70
20260508002703 38 0 0.0 0.0 0.00 0.00 0.00 70
20260508001803 38 0 0.0 0.0 0.00 0.00 0.00 69
20260508000903 38 82 0.0 2.0 0.00 0.00 0.00 69
20260508000216 39 82 0.0 2.0 0.00 0.00 0.00 68
20260507235403 39 82 0.0 1.0 0.00 0.00 0.00 68
20260507234503 39 82 0.0 1.0 0.00 0.00 0.00 67
20260507233603 39 0 0.0 0.0 0.00 0.00 0.00 67
20260507232703 40 0 0.0 0.0 0.00 0.00 0.00 67
20260507231803 40 83 0.0 1.0 0.00 0.00 0.00 66
20260507230903 40 0 0.0 0.0 0.00 0.00 0.00 66
20260507230003 40 0 0.0 0.0 0.00 0.00 0.00 65
20260507225615 40 0 0.0 0.0 0.00 0.00 0.00 65
20260507224503 41 0 0.0 0.0 0.00 0.00 0.00 64
20260507223603 41 0 0.0 0.0 0.00 0.00 0.00 64
20260507222703 41 0 0.0 0.0 0.00 0.00 0.00 63
20260507221803 42 101 0.0 1.0 0.00 0.00 0.00 63
20260507220903 42 129 0.0 1.0 0.00 0.00 0.00 62
20260507220003 42 66 0.0 1.0 0.00 0.00 0.00 61
20260507215403 43 66 0.0 1.0 0.00 0.00 0.00 60
20260507214503 43 48 0.0 1.0 0.00 0.00 0.00 59
20260507213603 43 94 0.0 2.0 0.00 0.00 0.00 56
20260507212703 44 0 0.0 0.0 0.00 0.00 0.00 55
20260507212016 44 0 0.0 0.0 0.00 0.00 0.00 54
20260507211116 44 8 0.0 1.0 0.00 0.00 0.00 53
20260507210003 45 8 0.0 1.0 0.00 0.00 0.00 50
20260507205403 45 0 0.0 0.0 0.00 0.00 0.00 49
20260507204503 45 360 0.0 1.0 0.00 0.00 0.00 46
20260507203817 45 0 0.0 0.0 0.00 0.00 0.00 48
20260507202703 45 0 0.0 0.0 0.00 0.00 0.00 47
20260507201803 46 360 0.0 2.0 0.00 0.00 0.00 44
20260507200903 46 0 0.0 0.0 0.00 0.00 0.00 45
20260507200003 47 0 0.0 0.0 0.00 0.00 0.00 42
20260507195403 47 0 0.0 0.0 0.00 0.00 0.00 39
20260507194503 48 1 0.0 1.0 0.00 0.00 0.00 38
20260507193603 48 357 0.0 2.0 0.00 0.00 0.00 38
20260507192703 49 0 0.0 0.0 0.00 0.00 0.00 36
20260507191803 49 0 0.0 0.0 0.00 0.00 0.00 34
20260507190903 50 336 0.0 1.0 0.00 0.00 0.00 32
20260507190004 50 336 0.0 1.0 0.00 0.00 0.00 34
20260507185403 50 0 0.0 0.0 0.00 0.00 0.00 32
20260507184717 51 0 0.0 0.0 0.00 0.00 0.00 32
20260507183603 52 336 0.0 1.0 0.00 0.00 0.00 34
20260507182703 52 336 0.0 1.0 0.00 0.00 0.00 32
20260507181803 53 336 0.0 2.0 0.00 0.00 0.00 31
20260507180903 54 18 0.0 3.0 0.00 0.00 0.00 28
20260507180003 55 33 0.0 2.0 0.00 0.00 0.00 27
20260507175403 55 33 0.0 1.0 0.00 0.00 0.00 27
20260507174717 56 33 0.0 2.0 0.00 0.00 0.00 28
20260507173603 57 33 0.0 2.0 0.00 0.00 0.00 26
20260507172915 58 351 1.0 5.0 0.00 0.00 0.00 27
20260507171803 58 87 1.0 3.0 0.00 0.00 0.00 28
20260507170903 60 107 1.0 3.0 0.00 0.00 0.00 24
20260507170003 60 78 1.0 2.0 0.00 0.00 0.00 24
20260507165403 60 34 1.0 3.0 0.00 0.00 0.00 21
20260507164503 61 356 1.0 5.0 0.00 0.00 0.00 21
20260507163603 61 4 1.0 5.0 0.00 0.00 0.00 22
20260507162919 61 351 2.0 7.0 0.00 0.00 0.00 23
20260507161803 61 307 3.0 6.0 0.00 0.00 0.00 22
20260507160903 60 323 4.0 9.0 0.00 0.00 0.00 22
20260507160003 60 304 4.0 11.0 0.00 0.00 0.00 21
20260507155403 60 295 2.0 11.0 0.00 0.00 0.00 23
20260507154716 60 165 1.0 4.0 0.00 0.00 0.00 21
20260507153815 60 270 3.0 9.0 0.00 0.00 0.00 21
20260507152703 60 335 4.0 7.0 0.00 0.00 0.00 21
20260507151803 60 289 4.0 12.0 0.00 0.00 0.00 22
20260507150903 61 195 2.0 6.0 0.00 0.00 0.00 21
20260507150003 61 233 2.0 4.0 0.00 0.00 0.00 21
20260507145616 60 299 2.0 6.0 0.00 0.00 0.00 21
20260507144503 60 284 4.0 11.0 0.00 0.00 0.00 22
20260507143603 60 287 6.0 11.0 0.00 0.00 0.00 23
20260507142703 60 300 6.0 14.0 0.00 0.00 0.00 22
20260507141803 60 301 6.0 15.0 0.00 0.00 0.00 21
20260507140903 60 323 4.0 10.0 0.00 0.00 0.00 20
20260507140003 60 302 4.0 9.0 0.00 0.00 0.00 24
20260507135403 60 293 4.0 10.0 0.00 0.00 0.00 23
20260507134503 60 306 5.0 12.0 0.00 0.00 0.00 25
20260507133603 59 310 4.0 11.0 0.00 0.00 0.00 23
20260507132918 59 305 3.0 9.0 0.00 0.00 0.00 21
20260507131803 59 285 5.0 11.0 0.00 0.00 0.00 23
20260507131117 60 287 5.0 13.0 0.00 0.00 0.00 23
20260507130003 59 293 4.0 12.0 0.00 0.00 0.00 21
20260507125403 59 296 3.0 12.0 0.00 0.00 0.00 24
20260507124503 59 280 3.0 9.0 0.00 0.00 0.00 25
20260507123603 58 274 3.0 7.0 0.00 0.00 0.00 28
20260507122703 58 84 1.0 4.0 0.00 0.00 0.00 28
20260507121803 57 112 1.0 4.0 0.00 0.00 0.00 24
20260507120903 58 159 1.0 4.0 0.00 0.00 0.00 28
20260507120003 58 25 2.0 5.0 0.00 0.00 0.00 26
20260507115403 59 349 2.0 10.0 0.00 0.00 0.00 26
20260507114503 58 340 3.0 12.0 0.00 0.00 0.00 26
20260507113603 56 318 2.0 5.0 0.00 0.00 0.00 27
20260507112703 57 319 4.0 7.0 0.00 0.00 0.00 27
20260507111803 58 308 4.0 9.0 0.00 0.00 0.00 27
20260507110903 57 316 3.0 10.0 0.00 0.00 0.00 26
20260507110003 56 333 2.0 6.0 0.00 0.00 0.00 28
20260507105403 56 334 2.0 7.0 0.00 0.00 0.00 28
20260507104503 56 294 4.0 12.0 0.00 0.00 0.00 28
20260507103603 55 334 2.0 6.0 0.00 0.00 0.00 31
20260507102917 54 303 2.0 7.0 0.00 0.00 0.00 38
20260507101803 55 299 3.0 9.0 0.00 0.00 0.00 31
20260507101116 56 302 3.0 8.0 0.00 0.00 0.00 30
20260507100003 56 323 4.0 9.0 0.00 0.00 0.00 29
20260507095403 56 292 4.0 10.0 0.00 0.00 0.00 31
20260507094718 57 292 4.0 9.0 0.00 0.00 0.00 33
20260507093603 56 321 3.0 7.0 0.00 0.00 0.00 28
20260507092703 55 8 3.0 10.0 0.00 0.00 0.00 33
20260507091803 55 9 3.0 9.0 0.00 0.00 0.00 29
20260507090903 54 280 3.0 10.0 0.00 0.00 0.00 35
20260507090003 54 286 3.0 6.0 0.00 0.00 0.00 42
20260507085403 54 243 2.0 6.0 0.00 0.00 0.00 42
20260507084718 53 189 2.0 6.0 0.00 0.00 0.00 42
20260507083603 53 213 1.0 5.0 0.00 0.00 0.00 45
20260507082703 53 196 1.0 5.0 0.00 0.00 0.00 45
20260507081803 52 198 1.0 4.0 0.00 0.00 0.00 46
20260507080903 51 166 3.0 7.0 0.00 0.00 0.00 49
20260507080003 51 168 1.0 6.0 0.00 0.00 0.00 48
20260507075403 51 65 1.0 4.0 0.00 0.00 0.00 48
20260507074503 50 310 2.0 6.0 0.00 0.00 0.00 51
20260507073603 50 34 1.0 3.0 0.00 0.00 0.00 51
20260507072916 49 91 0.0 2.0 0.00 0.00 0.00 54
20260507071803 48 86 1.0 4.0 0.00 0.00 0.00 54
20260507070903 47 86 1.0 4.0 0.00 0.00 0.00 56
20260507070005 46 86 1.0 4.0 0.00 0.00 0.00 56
20260507065403 46 86 1.0 4.0 0.00 0.00 0.00 59
20260507064503 44 86 0.0 3.0 0.00 0.00 0.00 59
20260507063603 44 86 0.0 2.0 0.00 0.00 0.00 60
20260507062703 44 86 0.0 3.0 0.00 0.00 0.00 60
20260507061803 42 86 1.0 3.0 0.00 0.00 0.00 63
20260507060903 42 86 1.0 3.0 0.00 0.00 0.00 65
20260507060003 40 86 0.0 2.0 0.00 0.00 0.00 67
20260507055403 40 86 0.0 2.0 0.00 0.00 0.00 69
20260507054716 39 86 0.0 1.0 0.00 0.00 0.00 71
20260507053603 38 0 0.0 0.0 0.00 0.00 0.00 73
20260507052703 37 0 0.0 0.0 0.00 0.00 0.00 74
20260507051803 37 0 0.0 0.0 0.00 0.00 0.00 73
20260507050903 37 0 0.0 0.0 0.00 0.00 0.00 73
20260507050217 36 0 0.0 0.0 0.00 0.00 0.00 73
20260507045403 36 0 0.0 0.0 0.00 0.00 0.00 73
20260507044503 36 0 0.0 0.0 0.00 0.00 0.00 73
20260507043603 35 0 0.0 0.0 0.00 0.00 0.00 74
20260507042703 35 0 0.0 0.0 0.00 0.00 0.00 75
20260507041803 35 0 0.0 0.0 0.00 0.00 0.00 75
20260507040903 35 0 0.0 0.0 0.00 0.00 0.00 75
20260507040003 35 0 0.0 0.0 0.00 0.00 0.00 75
20260507035403 35 0 0.0 0.0 0.00 0.00 0.00 75
20260507034503 36 0 0.0 0.0 0.00 0.00 0.00 74
20260507033603 36 0 0.0 0.0 0.00 0.00 0.00 74
20260507032703 36 0 0.0 0.0 0.00 0.00 0.00 74
20260507031803 36 0 0.0 0.0 0.00 0.00 0.00 73
20260507030903 36 0 0.0 0.0 0.00 0.00 0.00 72
20260507030003 36 0 0.0 0.0 0.00 0.00 0.00 71
20260507025403 36 0 0.0 0.0 0.00 0.00 0.00 71
20260507024503 36 0 0.0 0.0 0.00 0.00 0.00 71
20260507023603 37 0 0.0 0.0 0.00 0.00 0.00 70
20260507022703 37 0 0.0 0.0 0.00 0.00 0.00 70
20260507021803 37 0 0.0 0.0 0.00 0.00 0.00 68
20260507020903 38 0 0.0 0.0 0.00 0.00 0.00 68
20260507020003 38 0 0.0 0.0 0.00 0.00 0.00 68
20260507015403 38 0 0.0 0.0 0.00 0.00 0.00 69
20260507014503 38 0 0.0 0.0 0.00 0.00 0.00 71
20260507013603 38 0 0.0 0.0 0.00 0.00 0.00 70